Location: Caltech
(34.1382°N, 118.1253°W)
Time: 04:55:09
(UTC-07:00)

Cosmos 2360 Rocket - Visible Passes

Search period start: 25 July 2016 00:00
Search period end: 04 August 2016 00:00
Orbit: 833 x 846 km, 71.0° (Epoch: 24 July)

Date Brightness Start Highest point End Pass type
(mag) Time Alt. Az. Time Alt. Az. Time Alt. Az.
25 Jul 3.3 05:24:38 10° S 05:29:55 44° ESE 05:35:15 10° NE visible
26 Jul 3.4 05:09:04 10° S 05:14:16 41° ESE 05:19:32 10° NE visible
27 Jul 3.5 04:53:30 10° S 04:58:38 38° ESE 05:03:49 10° NE visible
28 Jul 3.6 04:37:57 10° SSE 04:43:00 36° ESE 04:48:05 10° NE visible
29 Jul 3.6 04:22:24 10° SSE 04:27:22 33° ESE 04:32:21 10° NE visible
30 Jul 3.7 04:06:59 10° SSE 04:11:44 31° ESE 04:16:36 10° NE visible
31 Jul 3.8 03:52:19 14° SSE 03:56:06 29° ESE 04:00:51 10° NE visible
31 Jul 3.1 05:34:56 10° SW 05:39:56 32° WNW 05:44:58 10° N visible
01 Aug 3.8 03:37:35 18° SE 03:40:28 27° ESE 03:45:06 10° NE visible
01 Aug 3.0 05:19:24 11° SW 05:24:15 35° WNW 05:29:23 10° N visible
02 Aug 3.9 03:22:49 20° SE 03:24:50 25° ESE 03:29:20 10° NE visible
02 Aug 2.9 05:04:37 16° WSW 05:08:34 37° WNW 05:13:46 10° N visible
03 Aug 3.9 03:07:59 21° ESE 03:09:13 23° E 03:13:32 10° NE visible
03 Aug 2.8 04:49:47 22° WSW 04:52:53 40° WNW 04:58:10 10° N visible
